Regional Weather Roundup
Issued by NWS

Home | Current Version | Previous Version | Text Only | Print | Product List | Glossary Off
Versions: 1 2 3 4 5 6 7 8 9 10 11 12 13 14 15 16 17 18 19 20 21 22 23 24 25 26 27 28 29 30 31 32 33 34 35 36 37 38 39 40 41 42 43 44 45 46 47 48 49 50

000
ASUS43 KLSX 281007
RWRMO

WEATHER SUMMARY FOR MISSOURI
NATIONAL WEATHER SERVICE SPRINGFIELD MO
500 AM CDT WED JUN 28 2017

NOTE: "FAIR" INDICATES FEW OR NO CLOUDS BELOW 12,000 FEET WITH NO
       SIGNIFICANT WEATHER AND/OR OBSTRUCTIONS TO VISIBILITY.
       CURRENT SKY AND/OR WEATHER CONDITIONS ARE NOT AVAILABLE FOR
       CHILLICOTHE AND FARMINGTON.

MOZ001>031-035>038-043-044-053-054-281100-
...NORTHERN AND WESTERN MISSOURI...

CITY           SKY/WX    TMP DP  RH WIND       PRES   REMARKS
KANSAS CTY INT CLOUDY    73  65  75 S15       29.85R
KANSAS C DTWN  CLOUDY    74  65  73 S16G23    29.86R
LEE`S SUMMIT   MOCLDY    72  64  76 S17G28    29.88R
ST JOSEPH      CLOUDY    74  67  78 NW12      29.88R
CHILLICOTHE      N/A     72  64  76 S9        29.86F
KIRKSVILLE     CLOUDY    71  63  75 S17G24    29.88F

$$
MOZ066>068-077>081-088>096-101>105-281100-
...SOUTHWEST MISSOURI...

CITY           SKY/WX    TMP DP  RH WIND       PRES   REMARKS
SPRINGFIELD    CLEAR     67  63  87 S14       29.97S
JOPLIN         CLOUDY    71  64  78 S13       29.93F
BRANSON          N/A     63  61  94 CALM      30.02R

$$
MOZ032>034-039>042-045>050-055>058-069>072-281100-
...CENTRAL MISSOURI...

CITY           SKY/WX    TMP DP  RH WIND       PRES   REMARKS
COLUMBIA       CLOUDY    67  64  90 S10       29.96R
JEFFERSON CITY CLOUDY    70  62  76 SE5       29.97R
ROLLA          CLOUDY    66  62  87 S10       30.00R
SEDALIA        CLOUDY    70  65  84 S16       29.93S
WHITEMAN AFB   MOCLDY    70  69  98 S13       29.89S
WARRENSBURG    CLOUDY    70  61  73 S13G18    29.89S
OSAGE BEACH    PTCLDY    67  63  87 S7        29.98R

$$
MOZ051-052-059>065-281100-
...EAST CENTRAL MISSOURI...

CITY           SKY/WX    TMP DP  RH WIND       PRES   REMARKS
ST LOUIS INTL  CLOUDY    70  58  65 S10       30.01S
SPIRIT OF STL  CLOUDY    67  60  78 S3        29.99S
ST CHARLES     CLOUDY    65  59  81 S5        29.99S

$$
MOZ072>076-082>087-097>100-106>115-281100-
...SOUTH CENTRAL AND SOUTHEAST MISSOURI...

CITY           SKY/WX    TMP DP  RH WIND       PRES   REMARKS
CAPE GIRARDEAU CLEAR     62  57  83 CALM      30.05R
FARMINGTON     CLEAR     59  57  93 SE5       30.05S
POPLAR BLUFF   CLEAR     63  62  97 CALM      30.04R
WEST PLAINS    CLEAR     65  62  90 S7        30.05S

$$




USA.gov is the U.S. government's official web portal to all federal, state and local government web resources and services.